Location: Koussan�
(15.2012°N, 12.5548°W)
Time: 18:24:23
(UTC+00:00)

FALCON 9 DEB - Pass Details

Date: 20 October 2020
Orbit: 377 x 396 km, 53.0° (Epoch: 30 November)

Event Time Altitude Azimuth Distance (km) Brightness Sun altitude
Rises 18:40:54 0° 212° (SSW) 2,308 7.5 -4.2°
Reaches altitude 10° 18:42:58 10° 210° (SSW) 1,449 6.4 -4.7°
Maximum altitude 18:46:12 71° 125° (SE) 425 2.9 -5.5°
Drops below altitude 10° 18:49:25 10° 41° (NE) 1,442 5.3 -6.2°
Enters shadow 18:50:57 - 39° (NE) 2,075 6.1 -6.6°
